601  
ASUS41 KPHI 301612  
RWRPHI  
 
REGIONAL WEATHER ROUNDUP  
NATIONAL WEATHER SERVICE MOUNT HOLLY NJ  
1200 PM EDT TUE JUN 30 2015  
 
NOTE: "FAIR" INDICATES FEW OR NO CLOUDS BELOW 12,000 FEET WITH NO  
SIGNIFICANT WEATHER AND/OR S TO VISIBILITY
.  
 
* = STATION DOES NOT REPORT PRECIPITATION (E.G. RAIN, SNOW, ETC.)  
OR FOG.
 
 
NJZ015>026-301700-  
SOUTHERN NEW JERSEY  
 
CITY SKY/WX TMP DP RH WIND PRES REMARKS
 
POMONA MOSUNNY 80 66 62 S10G24 29.97F  
RIO GRANDE* SUNNY 81 70 69 S17G25 29.97F  
MILLVILLE MOSUNNY 80 68 66 S14G24 29.95F  
WRIGHTSTOWN MOSUNNY 83 65 56 S16G23 29.92F  
MOUNT HOLLY MOSUNNY 82 65 56 S8G18 29.93F  
TRENTON MOSUNNY 82 64 54 S16G23 29.93F  
 

 
NJZ001>014-301700-  
NORTHERN NEW JERSEY  
 
CITY SKY/WX TMP DP RH WIND PRES REMARKS
 
SUSSEX CLOUDY 69 64 84 CALM 29.95S  
ANDOVER* N/A 74 66 76 VRB6 29.94F  
MORRISTOWN CLOUDY 81 64 57 SW12 29.95F  
NEWARK PTSUNNY 82 57 42 S14G22 29.94F  
TETERBORO MOSUNNY 82 55 39 S17G28 29.94F  
CALDWELL CLOUDY 79 59 50 S8G21 29.95S  
SOMERVILLE PTSUNNY 81 62 52 S12G20 29.91F  
ALLAIRE* MOSUNNY 79 57 47 SE15G23 29.96F  
TOMS RIVER* MOSUNNY 82 61 47 S16G24 29.96F  
 

 
PAZ043-044-047-054-055-060>062-066>071-301700-  
EASTERN PENNSYLVANIA  
 
CITY SKY/WX TMP DP RH WIND PRES REMARKS
 
PHILADELPHIA PTSUNNY 82 64 54 S14 29.92F  
NORTH PHILA MOSUNNY 83 62 49 S7G22 29.94F  
BLUE BELL MOSUNNY 81 66 61 S12 29.92F  
DOYLESTOWN MOSUNNY 78 64 61 VRB7G18 29.91F  
QUAKERTOWN* MOSUNNY 79 68 69 S10 29.93F  
POTTSTOWN CLOUDY 77 68 73 S9 29.93F  
LANCASTER CLOUDY 75 70 84 S12 29.90F  
COATESVILLE PTSUNNY 77 72 83 SE7 29.93F  
READING PTSUNNY 73 68 84 CALM 29.90F  
ALLENTOWN LGT RAIN 72 66 83 CALM 29.93S  
MOUNT POCONO LGT RAIN 62 59 90 SE6 29.98S FOG  
HAZLETON CLOUDY 66 64 94 SE8 29.97F FOG  
WILKES BARRE CLOUDY 69 63 81 SW3 29.93S  
 

 
DEZALL-MDZ008-012-015-019-020-301700-  
DELAWARE AND EASTERN MARYLAND  
 
CITY SKY/WX TMP DP RH WIND PRES REMARKS
 
WILMINGTON PTSUNNY 80 70 71 S16 29.92F  
DOVER MOSUNNY 84 69 59 SE17G24 29.91F  
GEORGETOWN SUNNY 84 65 52 S14G25 29.94F  
EASTON PTSUNNY 86 72 62 S17G24 29.94F HX 92  
ABERDEEN PTSUNNY 81 73 78 SW12 29.92F  
PATUXENT MOSUNNY 81 74 79 SE15G25 29.90F  
OCEAN CITY NOT AVBL  
WALLOPS ISLAND MOSUNNY 81 74 79 S16 29.96F  
CAMBRIDGE MOSUNNY 84 68 58 S13G22 29.91F  
SALISBURY SUNNY 84 67 56 S17 29.93F  
 

 
PAZ001-021-NYZ056-072-MDZ011-DCZ001-301700-  
OTHER NEARBY LOCATIONS  
 
CITY SKY/WX TMP DP RH WIND PRES REMARKS
 
HARRISBURG PTSUNNY 78 67 68 SW9G17 29.88F  
STATE COLLEGE CLOUDY 70 64 83 SW6 29.91R  
WILLIAMSPORT PTSUNNY 72 64 76 VRB6 29.87F  
BINGHAMTON CLOUDY 63 61 93 SE13 29.92S  
NEW YORK CITY SUNNY 79 56 45 S9G24 29.98F  
BALTIMORE PTSUNNY 80 70 71 SW8 29.89S  
WASHINGTON DC MOSUNNY 82 73 74 S8 29.90F  
 

 
 
CLICK HERE TO GO TO PREVIOUS BULLETINS.

The Nexlab PA Page
The Nexlab NJ Page
The Nexlab DE Page
The Nexlab MD Page Main Text Page